Total_Precipitation_Accumulation
2.13 2.19 1.71 1.07 0.87 0.74 0.69 0.72 0.65 0.54 0.51 0.71 0.78 0.74 0.74 0.70 0.68 0.72 0.74 0.79 0.93 1.13 1.28 1.50 1.73 2.14 2.40 2.72 3.07 3.24 3.55 3.82 4.04 4.26 4.32 4.11 3.84 3.65 3.52 3.54 3.44 3.24 3.07 3.01
2.07 1.70 0.95 0.75 0.77 0.81 0.85 0.90 0.71 0.59 0.53 0.69 0.74 0.71 0.75 0.80 0.80 0.72 0.70 0.74 0.82 0.99 1.13 1.31 1.57 1.94 2.18 2.39 2.62 2.86 3.13 3.44 3.69 3.81 3.91 4.04 4.05 3.81 3.55 3.51 3.56 3.49 3.36 3.21
1.48 1.01 0.70 0.82 0.92 1.01 0.94 0.89 0.75 0.71 0.65 0.77 0.81 0.84 0.74 0.78 0.79 0.77 0.76 0.77 0.84 0.99 1.04 1.16 1.37 1.77 2.00 2.13 2.35 2.56 2.81 3.02 3.19 3.58 3.90 4.04 4.32 4.23 3.80 3.45 3.29 3.42 3.48 3.45
1.22 0.73 0.76 0.96 0.93 0.98 1.02 0.65 0.67 0.76 1.03 1.17 0.93 1.16 0.83 0.75 0.74 0.79 0.83 0.87 0.94 1.00 1.05 1.15 1.24 1.48 1.73 1.84 2.06 2.35 2.64 2.88 2.97 3.30 3.59 3.64 3.65 3.75 3.51 3.29 3.27 3.39 3.46 3.51
1.30 0.84 0.87 1.05 0.80 0.82 0.86 0.62 0.75 0.89 1.11 1.26 0.91 1.08 0.93 0.69 0.80 0.85 0.87 0.95 1.05 0.98 0.99 1.12 1.20 1.29 1.49 1.63 1.77 2.04 2.43 2.74 2.90 3.01 3.24 3.47 3.51 3.53 3.61 3.56 3.43 3.36 3.31 3.37
0.95 0.83 0.94 0.90 0.67 0.77 0.89 1.01 1.16 1.24 1.68 1.81 0.85 0.92 0.99 0.85 0.93 0.86 0.81 0.89 1.01 0.96 0.98 1.05 1.09 1.15 1.34 1.45 1.51 1.75 2.05 2.48 2.85 2.99 3.05 3.16 3.24 3.23 3.34 3.51 3.48 3.41 3.29 3.23
1.14 0.94 0.87 0.86 1.05 1.08 1.38 2.05 2.67 2.62 2.49 1.43 0.53 0.75 1.04 0.89 0.82 0.84 0.83 0.82 0.90 0.96 0.98 1.02 1.06 1.16 1.24 1.35 1.38 1.52 1.70 2.05 2.49 2.75 2.79 2.86 2.95 3.00 2.99 3.17 3.35 3.36 3.25 3.11
1.25 1.10 0.78 0.89 1.23 1.34 1.32 1.78 2.13 1.79 1.19 0.68 0.47 0.73 0.94 0.81 0.72 0.68 0.65 0.67 0.76 0.86 0.91 0.94 0.97 1.03 1.05 1.12 1.23 1.37 1.48 1.66 1.94 2.24 2.41 2.56 2.67 2.75 2.68 2.70 2.99 3.13 3.05 2.98
1.14 0.89 0.53 0.64 0.80 1.02 1.30 1.42 1.27 1.62 1.14 0.79 0.63 0.66 0.70 0.54 0.54 0.56 0.55 0.56 0.66 0.73 0.77 0.80 0.81 0.85 0.88 0.92 1.02 1.17 1.24 1.34 1.53 1.80 2.06 2.27 2.37 2.51 2.57 2.50 2.61 2.90 2.93 2.80
1.18 1.17 0.63 0.66 0.94 1.09 1.18 1.19 1.48 2.29 1.92 1.13 0.65 0.58 0.72 0.61 0.57 0.60 0.58 0.55 0.58 0.61 0.67 0.71 0.74 0.79 0.83 0.87 0.83 0.89 1.05 1.22 1.36 1.48 1.76 1.98 2.14 2.26 2.37 2.46 2.47 2.54 2.65 2.65
1.06 1.46 0.98 0.90 1.20 1.18 1.21 1.49 1.73 1.89 1.63 1.42 0.98 0.81 0.77 0.66 0.63 0.64 0.63 0.58 0.58 0.60 0.66 0.69 0.70 0.74 0.83 0.88 0.81 0.79 0.90 1.08 1.22 1.29 1.49 1.67 1.83 2.01 2.14 2.25 2.29 2.32 2.37 2.47
1.02 1.67 1.31 0.83 0.71 0.77 1.02 1.23 1.54 2.15 1.71 1.30 1.13 0.92 0.68 0.60 0.58 0.61 0.65 0.63 0.62 0.66 0.71 0.70 0.69 0.71 0.80 0.90 0.89 0.84 0.87 0.95 1.09 1.19 1.30 1.52 1.62 1.76 1.93 2.05 2.09 2.11 2.16 2.21
1.48 2.05 1.87 1.28 1.06 1.02 1.19 1.09 1.19 1.72 2.16 1.73 1.40 0.97 0.61 0.49 0.47 0.53 0.60 0.63 0.64 0.67 0.73 0.72 0.72 0.74 0.80 0.88 0.95 0.88 0.87 0.91 0.98 1.12 1.18 1.34 1.50 1.60 1.67 1.78 1.89 1.94 1.98 2.07
1.82 2.07 1.67 1.39 1.26 1.25 1.18 0.95 1.10 2.01 2.64 1.64 0.98 0.68 0.51 0.48 0.55 0.57 0.59 0.64 0.69 0.70 0.73 0.75 0.81 0.83 0.86 0.89 0.95 0.90 0.90 0.90 0.91 1.04 1.12 1.16 1.34 1.47 1.53 1.59 1.68 1.75 1.77 1.84
1.53 1.88 1.18 0.77 0.63 0.82 0.88 0.86 1.00 1.49 1.58 1.54 0.95 0.63 0.61 0.61 0.68 0.69 0.65 0.63 0.63 0.64 0.67 0.72 0.78 0.85 0.88 0.90 0.96 0.97 0.94 0.95 0.92 0.97 1.07 1.13 1.19 1.28 1.42 1.52 1.60 1.69 1.72 1.74
1.28 1.61 1.20 0.85 0.53 0.63 0.73 0.70 0.75 0.89 0.99 1.04 0.79 0.76 0.68 0.62 0.58 0.57 0.57 0.56 0.61 0.63 0.67 0.68 0.69 0.76 0.80 0.90 0.98 1.04 1.03 1.02 0.98 0.96 1.00 1.08 1.17 1.21 1.28 1.38 1.50 1.60 1.71 1.76
1.18 1.46 1.63 1.12 0.60 0.79 0.96 0.84 0.82 0.85 0.87 0.90 0.96 0.89 0.71 0.64 0.60 0.62 0.60 0.56 0.58 0.59 0.60 0.62 0.65 0.72 0.77 0.85 0.94 1.03 1.07 1.04 1.02 1.01 1.00 1.04 1.12 1.22 1.29 1.33 1.42 1.59 1.71 1.89
0.89 1.31 1.91 1.44 0.94 1.17 0.92 0.68 0.69 0.76 0.81 0.85 0.84 0.75 0.70 0.66 0.66 0.66 0.62 0.57 0.55 0.54 0.55 0.55 0.59 0.62 0.65 0.71 0.81 0.94 0.99 1.02 1.03 1.03 1.07 1.09 1.11 1.23 1.35 1.38 1.45 1.57 1.70 1.86
0.53 1.14 1.92 1.72 1.25 0.81 0.52 0.48 0.65 0.77 0.82 0.79 0.66 0.55 0.53 0.54 0.55 0.58 0.54 0.52 0.56 0.57 0.60 0.59 0.60 0.62 0.61 0.65 0.74 0.86 0.94 0.95 0.98 1.03 1.09 1.14 1.17 1.29 1.40 1.43 1.48 1.56 1.64 1.72
0.48 0.96 1.87 1.79 1.50 0.83 0.54 0.34 0.40 0.63 0.90 0.66 0.58 0.57 0.56 0.57 0.68 0.62 0.51 0.50 0.53 0.52 0.54 0.60 0.62 0.60 0.62 0.67 0.71 0.82 0.93 1.03 1.09 1.13 1.19 1.23 1.31 1.44 1.51 1.51 1.52 1.52 1.54 1.55
0.69 1.26 1.67 1.45 1.38 0.75 0.51 0.32 0.33 0.86 1.03 0.58 0.56 0.60 0.63 0.69 0.73 0.63 0.49 0.46 0.51 0.53 0.53 0.56 0.60 0.62 0.67 0.72 0.73 0.77 0.85 1.05 1.16 1.21 1.24 1.27 1.35 1.43 1.50 1.48 1.44 1.43 1.40 1.39
0.63 0.92 1.04 1.13 1.46 1.03 0.53 0.41 0.76 0.99 0.64 0.56 0.56 0.60 0.63 0.61 0.52 0.46 0.46 0.46 0.45 0.47 0.49 0.55 0.62 0.65 0.66 0.73 0.81 0.81 0.88 0.99 1.06 1.13 1.16 1.18 1.21 1.27 1.37 1.41 1.39 1.34 1.35 1.34
0.67 0.87 0.95 1.01 1.10 0.93 0.72 0.78 0.83 0.71 0.64 0.55 0.56 0.55 0.55 0.53 0.50 0.44 0.42 0.43 0.45 0.48 0.50 0.56 0.66 0.72 0.72 0.74 0.81 0.87 0.86 0.88 0.94 1.02 1.09 1.09 1.06 1.09 1.16 1.24 1.30 1.32 1.33 1.33
0.62 0.55 0.74 0.86 0.82 0.72 0.67 0.60 0.55 0.55 0.60 0.55 0.51 0.51 0.52 0.54 0.50 0.46 0.44 0.44 0.43 0.44 0.49 0.56 0.61 0.67 0.70 0.70 0.74 0.79 0.76 0.76 0.80 0.88 0.96 1.01 1.02 1.02 1.02 1.07 1.17 1.24 1.30 1.31
0.67 0.61 0.69 0.75 0.65 0.55 0.52 0.50 0.51 0.49 0.45 0.42 0.40 0.41 0.46 0.49 0.47 0.46 0.48 0.46 0.47 0.48 0.51 0.56 0.64 0.69 0.71 0.68 0.69 0.71 0.70 0.71 0.76 0.78 0.83 0.87 0.95 1.00 1.04 1.06 1.14 1.25 1.30 1.43
0.62 0.70 0.81 0.83 0.65 0.67 0.64 0.53 0.48 0.46 0.44 0.43 0.41 0.38 0.37 0.41 0.46 0.43 0.45 0.44 0.46 0.52 0.53 0.55 0.58 0.64 0.72 0.71 0.68 0.67 0.67 0.70 0.77 0.81 0.81 0.85 0.93 0.98 1.00 1.03 1.10 1.20 1.25 1.32